Wind_Speed
28 29 29 29 29 29 30 31 32 32 32 33 34 34 35 36 37 37 38 39 39 40 41 41 42 43 43 44 45 46 46 46 46 46 46 46 44 43 42 41 42 42
29 30 30 30 30 30 31 32 32 33 33 34 34 35 36 37 37 38 38 39 40 40 41 42 43 43 44 45 46 47 47 47 47 47 46 46 44 44 43 41 42 43
30 31 31 31 31 31 31 32 33 34 34 35 35 36 37 38 38 39 39 39 40 41 42 42 44 44 45 46 47 48 49 49 49 48 47 46 45 44 44 42 42 43
31 32 33 32 32 32 32 33 34 35 35 35 36 37 38 38 39 39 39 40 40 41 42 43 44 45 46 47 48 49 50 50 50 49 47 46 45 44 43 43 42 43
32 33 34 34 33 32 32 33 34 35 36 36 37 37 38 38 39 40 40 41 41 42 43 44 46 47 47 48 48 49 50 51 50 48 46 45 44 43 42 42 42 42
32 34 35 35 34 33 33 33 35 36 36 37 37 38 38 38 39 40 41 42 42 43 44 45 46 48 48 49 49 49 50 50 49 46 44 43 43 42 41 40 40 41
33 35 35 35 34 33 33 34 35 36 37 37 38 39 39 39 40 41 42 43 44 45 45 46 47 48 49 49 49 50 50 50 49 45 42 42 41 40 39 39 39 40
34 35 35 35 33 33 33 34 35 36 37 37 38 39 40 41 42 42 43 44 45 46 46 46 47 48 49 50 50 50 50 49 48 44 41 40 39 38 37 38 38 39
34 35 35 34 33 33 33 34 36 37 38 38 38 39 40 41 42 43 44 45 45 46 46 46 47 48 49 50 50 50 49 48 47 44 41 38 36 36 36 37 37 38
35 35 36 35 34 34 34 35 36 38 38 39 39 41 42 43 44 45 45 45 45 46 46 46 47 48 49 49 49 49 47 44 42 40 40 38 35 34 34 35 36 37
37 37 36 36 35 35 35 36 37 39 40 40 41 43 44 45 45 45 45 45 45 46 46 47 48 48 48 48 48 47 45 42 39 37 36 36 33 32 33 33 34 35
38 38 37 36 36 35 36 37 39 40 41 42 43 44 45 46 47 46 46 46 45 46 46 47 48 47 47 48 47 45 42 41 40 37 35 35 33 32 32 32 32 33
38 37 37 37 36 37 37 38 39 41 42 43 45 46 47 47 47 47 46 46 45 46 46 47 47 47 47 47 45 42 40 39 38 37 35 35 33 32 31 30 30 32
37 37 37 37 37 38 38 39 40 41 43 44 46 47 48 47 47 46 45 45 45 45 46 47 47 46 46 45 42 40 38 36 35 36 35 33 31 30 29 29 30 31
38 37 37 37 38 39 39 40 41 42 44 46 47 48 48 47 47 46 45 45 45 45 45 46 46 46 45 43 39 37 35 33 33 33 32 31 29 28 28 29 30 30
37 37 38 38 39 39 39 40 42 43 45 47 48 48 48 48 47 46 45 45 45 45 45 45 45 44 43 40 37 35 33 33 33 32 30 29 28 28 28 28 29 30
37 38 39 39 39 39 40 41 43 44 46 47 48 48 48 48 47 45 45 44 44 44 44 44 44 43 41 38 35 34 33 33 31 30 29 28 28 28 28 28 29 29
38 39 40 40 40 40 41 43 44 45 47 48 48 47 47 47 46 45 44 44 44 44 44 43 43 42 40 36 34 34 33 31 29 28 27 27 27 27 27 28 28 28
39 40 41 41 42 42 43 43 44 46 48 48 47 47 47 47 45 44 44 43 43 43 42 42 42 41 38 35 34 34 32 29 27 26 26 26 26 27 27 27 27 27
40 40 42 43 44 44 44 44 45 46 48 48 48 47 47 46 45 44 43 42 42 42 41 40 41 40 37 34 34 33 30 28 26 25 25 26 26 27 27 27 28 28
41 42 43 44 45 45 45 46 46 46 47 48 48 47 45 44 44 43 43 42 42 41 40 39 39 39 37 35 33 31 29 27 26 25 25 26 27 27 26 27 28 29
42 43 44 45 45 46 47 48 47 46 47 47 47 46 44 43 43 43 42 42 41 40 38 38 38 37 36 35 32 30 28 27 26 26 26 27 27 27 27 27 27 28
44 44 45 45 46 47 48 49 48 46 46 46 46 44 42 42 42 42 41 41 40 39 37 37 37 35 34 34 31 29 28 27 27 26 26 27 28 28 27 27 26 27
44 45 45 46 47 48 49 49 48 47 46 46 46 43 41 41 41 41 40 40 39 38 36 36 36 34 33 33 32 29 28 27 27 26 26 26 28 28 28 28 27 27
45 46 46 47 47 47 48 48 49 48 46 45 45 43 41 41 41 40 40 39 38 36 34 35 35 34 33 32 32 30 28 27 27 27 25 26 27 28 29 28 28 28
46 47 47 48 47 47 47 48 48 48 46 45 44 43 41 40 40 39 39 39 37 34 33 34 34 33 33 33 32 30 28 27 28 28 26 25 26 28 29 29 29 29
Wind_Direction
315 316 316 315 314 314 316 317 318 319 319 319 318 318 317 316 316 315 315 314 314 314 315 315 316 317 318 319 320 321 321 320 317 314 312 310 308 305 303 301 298 295
313 314 315 314 313 312 313 315 316 317 318 318 318 317 316 316 316 315 315 314 314 314 315 315 316 317 318 319 320 319 319 318 315 313 310 308 307 304 301 298 295 293
310 312 314 313 312 311 311 312 314 315 317 317 317 317 316 316 316 315 315 314 315 315 315 316 316 317 318 319 319 319 318 317 315 312 309 308 306 303 300 297 293 291
308 311 312 312 311 310 309 310 312 313 315 316 316 316 315 316 315 315 315 315 316 316 316 317 317 317 318 319 319 319 318 316 314 311 309 307 305 302 299 296 292 290
307 309 311 312 310 308 307 308 310 312 314 314 314 315 315 316 315 315 316 316 316 317 317 318 317 318 318 319 319 319 317 315 313 311 307 305 304 301 298 295 291 288
306 308 310 311 309 307 306 307 309 310 312 313 313 314 315 316 316 316 317 317 317 318 318 318 318 318 319 319 319 319 317 315 313 311 307 305 304 301 298 295 291 288
307 308 310 309 308 306 305 306 308 309 311 313 313 314 316 316 317 318 318 318 318 318 318 318 318 319 319 320 320 319 317 315 312 310 306 305 304 301 298 295 291 288
308 308 308 308 307 305 305 305 307 309 311 313 315 316 318 318 319 319 318 318 317 317 318 319 320 320 320 320 320 319 317 315 312 309 305 304 302 298 295 292 289 286
308 308 309 308 307 306 306 306 308 310 312 313 316 318 319 319 319 319 318 317 317 317 319 320 320 321 321 321 320 319 317 315 313 309 305 304 302 298 294 290 287 285
308 310 311 310 308 307 307 308 309 311 313 314 317 318 319 319 319 319 318 317 317 318 319 320 321 322 322 321 319 317 316 315 313 310 307 304 302 298 294 290 287 285
310 312 311 310 309 308 309 310 311 313 315 317 319 319 320 320 319 317 317 317 318 319 320 321 322 323 322 320 318 317 315 313 311 310 309 307 305 301 295 291 289 287
311 311 310 310 310 310 311 312 313 315 318 319 320 320 319 319 317 317 317 319 320 320 321 322 323 323 321 320 318 316 314 312 310 310 309 307 307 304 298 294 291 289
309 309 310 310 310 311 312 313 315 317 319 320 320 319 319 318 318 318 319 320 320 321 321 322 322 322 321 320 318 315 313 312 312 312 310 308 307 304 300 297 294 292
308 309 310 310 311 312 312 314 316 318 319 319 319 319 318 318 318 319 319 320 320 321 322 322 322 322 321 320 317 315 315 314 312 311 309 308 306 304 301 298 295 293
309 310 310 311 311 312 313 315 316 318 318 319 319 318 317 318 318 319 319 320 320 321 322 322 322 322 321 320 317 316 316 314 311 309 307 306 305 302 300 298 296 296
309 310 310 311 311 311 313 315 316 317 318 318 317 317 317 318 318 319 319 319 320 321 321 321 321 321 321 319 317 316 314 311 310 308 307 306 305 302 299 298 298 299
308 309 309 309 310 311 313 315 316 317 317 316 316 316 316 317 318 319 318 318 319 320 321 320 321 321 319 317 317 316 313 310 309 308 307 306 304 302 300 300 300 302
308 309 309 309 311 313 314 315 316 316 315 315 314 315 316 317 317 317 317 317 318 319 320 320 320 320 318 317 317 316 312 310 308 307 307 306 305 305 304 304 305 305
308 309 310 311 312 313 314 315 316 315 314 313 313 314 316 316 316 316 316 317 318 318 319 319 320 319 318 317 317 316 313 310 308 308 308 308 308 309 309 309 309 309
309 310 310 311 312 313 313 314 314 314 313 312 313 314 315 315 315 314 315 316 317 317 318 319 319 318 316 316 316 316 314 311 309 309 309 309 310 310 312 313 311 312
309 310 310 310 311 312 312 312 313 313 312 312 313 314 314 314 313 313 314 314 316 317 318 319 319 316 314 314 316 318 316 312 310 309 308 309 309 310 313 313 312 314
308 309 309 309 310 310 310 310 311 312 311 312 313 313 313 313 312 312 312 313 315 316 317 318 318 316 313 312 315 318 315 311 309 309 309 309 309 309 312 313 315 317
307 308 308 308 308 308 308 309 310 311 311 312 312 312 311 311 310 311 311 313 314 315 316 318 318 315 311 310 313 315 313 310 308 308 308 308 308 308 310 312 314 316
306 306 306 306 306 306 306 308 309 310 311 311 311 311 310 309 310 310 311 312 313 312 314 317 318 314 310 308 310 312 311 308 308 307 306 306 307 308 309 311 313 315
304 304 304 303 303 304 306 307 309 309 310 311 311 310 309 308 308 309 309 310 310 309 312 317 318 313 309 308 310 312 312 310 309 308 305 304 306 307 309 310 311 314
301 301 301 301 303 304 306 307 307 308 309 310 310 309 307 306 306 306 308 309 308 307 310 317 317 311 308 309 310 310 309 310 310 308 304 302 303 305 308 309 311 313
Height
5897 5895 5894 5892 5890 5888 5887 5885 5883 5881 5880 5878 5876 5874 5872 5870 5868 5866 5864 5862 5860 5858 5856 5854 5851 5848 5845 5842 5839 5837 5834 5832 5829 5826 5823 5821 5819 5817 5815 5814 5811 5810
5894 5893 5891 5889 5887 5885 5884 5882 5880 5878 5877 5875 5873 5871 5869 5867 5865 5863 5861 5859 5857 5855 5853 5850 5847 5845 5841 5838 5835 5832 5830 5827 5824 5822 5819 5816 5814 5812 5810 5809 5808 5806
5891 5890 5888 5886 5884 5883 5881 5879 5877 5875 5874 5872 5870 5868 5866 5863 5862 5860 5857 5855 5853 5851 5848 5846 5843 5840 5837 5834 5831 5827 5825 5822 5819 5816 5814 5811 5809 5807 5805 5804 5803 5801
5888 5887 5885 5883 5881 5879 5878 5876 5874 5872 5870 5868 5867 5865 5862 5860 5858 5856 5854 5851 5849 5847 5844 5841 5839 5836 5833 5830 5826 5823 5819 5816 5814 5811 5808 5806 5804 5802 5800 5798 5797 5796
5885 5883 5882 5880 5878 5876 5874 5873 5871 5869 5867 5865 5863 5861 5859 5857 5854 5852 5850 5847 5845 5842 5840 5837 5834 5831 5828 5825 5822 5818 5815 5811 5808 5806 5803 5800 5798 5796 5795 5793 5792 5790
5882 5880 5878 5876 5874 5872 5871 5869 5868 5866 5864 5862 5860 5858 5856 5853 5851 5848 5845 5843 5841 5838 5835 5832 5829 5826 5823 5820 5817 5814 5810 5806 5802 5800 5798 5795 5792 5790 5789 5788 5786 5785
5878 5876 5875 5873 5871 5869 5867 5866 5864 5863 5861 5859 5856 5854 5852 5849 5847 5844 5841 5839 5836 5833 5831 5828 5825 5821 5818 5815 5812 5808 5804 5800 5797 5794 5792 5790 5787 5785 5784 5782 5780 5779
5874 5873 5871 5869 5867 5866 5864 5862 5861 5859 5857 5855 5853 5850 5848 5845 5842 5840 5837 5835 5832 5829 5826 5823 5820 5816 5813 5810 5807 5803 5799 5795 5791 5789 5786 5784 5782 5780 5778 5776 5775 5773
5871 5869 5867 5865 5864 5862 5860 5859 5857 5855 5853 5852 5849 5846 5844 5841 5838 5836 5833 5830 5827 5824 5821 5818 5815 5811 5808 5804 5801 5797 5793 5789 5786 5783 5781 5779 5777 5775 5773 5771 5770 5768
5867 5865 5863 5861 5860 5858 5856 5855 5853 5851 5849 5847 5845 5842 5839 5837 5834 5831 5829 5826 5823 5820 5817 5813 5810 5806 5803 5799 5795 5791 5788 5784 5780 5778 5776 5774 5772 5770 5768 5767 5765 5763
5862 5861 5859 5857 5855 5854 5852 5850 5848 5846 5844 5842 5840 5837 5834 5832 5829 5827 5825 5822 5818 5815 5812 5808 5805 5802 5798 5794 5790 5785 5782 5779 5775 5773 5771 5769 5767 5765 5764 5762 5760 5758
5859 5857 5855 5853 5851 5849 5848 5846 5844 5842 5840 5837 5835 5832 5830 5827 5825 5822 5819 5816 5813 5810 5806 5803 5800 5797 5793 5789 5785 5781 5777 5774 5771 5769 5767 5765 5762 5761 5759 5758 5756 5753
5855 5852 5850 5848 5847 5845 5844 5842 5840 5838 5835 5833 5830 5827 5825 5822 5820 5817 5814 5811 5809 5805 5802 5798 5795 5792 5789 5785 5781 5777 5773 5770 5767 5765 5763 5760 5758 5756 5755 5753 5751 5749
5850 5848 5846 5844 5843 5841 5840 5838 5836 5834 5831 5828 5825 5822 5820 5817 5815 5812 5810 5807 5804 5800 5797 5794 5791 5788 5785 5781 5777 5774 5770 5767 5764 5761 5759 5757 5755 5753 5751 5749 5747 5745
5846 5844 5842 5841 5839 5837 5836 5834 5832 5829 5827 5824 5821 5818 5815 5813 5810 5808 5805 5802 5799 5795 5792 5789 5786 5783 5780 5776 5773 5770 5767 5764 5761 5758 5756 5753 5751 5750 5748 5745 5744 5741
5842 5840 5838 5837 5835 5834 5832 5830 5828 5825 5822 5819 5817 5814 5811 5808 5806 5803 5800 5797 5794 5790 5787 5784 5781 5778 5775 5772 5769 5766 5763 5760 5758 5755 5753 5751 5748 5746 5744 5742 5740 5738
5838 5836 5835 5833 5832 5830 5828 5826 5823 5820 5818 5815 5812 5809 5807 5804 5801 5798 5795 5792 5789 5786 5783 5780 5777 5774 5770 5767 5764 5762 5759 5757 5755 5752 5750 5748 5745 5743 5741 5739 5737 5735
5834 5833 5831 5829 5827 5826 5824 5821 5819 5816 5813 5811 5808 5805 5802 5799 5796 5794 5790 5787 5784 5781 5778 5775 5772 5769 5766 5763 5761 5758 5756 5754 5751 5749 5747 5745 5742 5740 5738 5736 5734 5732
5831 5828 5826 5824 5823 5821 5819 5817 5814 5812 5809 5806 5803 5801 5798 5795 5792 5789 5786 5782 5779 5776 5774 5771 5768 5765 5762 5759 5757 5754 5752 5750 5748 5746 5744 5742 5739 5737 5735 5733 5730 5728
5826 5824 5822 5820 5818 5816 5814 5812 5810 5807 5804 5801 5799 5796 5793 5790 5787 5784 5781 5778 5775 5772 5769 5766 5763 5760 5757 5755 5753 5751 5749 5747 5745 5743 5741 5738 5736 5734 5731 5729 5727 5724
5822 5820 5818 5816 5813 5811 5809 5807 5806 5803 5799 5796 5794 5791 5789 5786 5782 5779 5776 5773 5771 5768 5765 5762 5759 5756 5753 5751 5749 5747 5745 5743 5741 5739 5737 5735 5733 5731 5729 5726 5723 5721
5818 5816 5814 5811 5809 5807 5804 5802 5801 5798 5795 5792 5789 5787 5784 5781 5778 5774 5771 5768 5766 5764 5761 5758 5755 5752 5749 5747 5745 5743 5742 5740 5738 5737 5734 5732 5730 5728 5726 5723 5720 5718
5813 5812 5810 5807 5804 5802 5800 5797 5795 5793 5790 5787 5785 5782 5779 5776 5773 5770 5767 5764 5761 5759 5757 5754 5751 5749 5746 5743 5741 5740 5738 5737 5735 5734 5731 5729 5727 5725 5722 5720 5718 5715
5809 5807 5805 5802 5800 5798 5795 5792 5790 5788 5785 5782 5780 5777 5774 5771 5768 5765 5762 5759 5757 5755 5753 5750 5748 5746 5743 5740 5738 5737 5735 5734 5732 5730 5728 5726 5724 5722 5719 5717 5715 5713
5804 5803 5800 5798 5795 5793 5790 5787 5784 5782 5780 5778 5775 5772 5769 5766 5763 5761 5758 5755 5753 5751 5748 5746 5744 5742 5739 5736 5735 5733 5732 5730 5729 5727 5725 5723 5721 5719 5717 5714 5712 5710
5799 5797 5795 5793 5790 5788 5785 5782 5779 5777 5775 5772 5769 5766 5764 5761 5759 5756 5754 5752 5749 5747 5744 5742 5740 5738 5735 5733 5731 5730 5729 5727 5726 5724 5722 5720 5718 5716 5714 5711 5709 5707